Location: Calvatone
(45.1167°N, 10.4333°E)
Time: 15:28:10
(UTC+00:00)

Meteor 2-12 Rocket - Pass Details

Date: 28 January 2023
Orbit: 935 x 957 km, 82.5° (Epoch: 30 March)

Event Time Altitude Azimuth Distance (km) Brightness Sun altitude
Rises 18:22:47 0° 353° (N) 3,628 7.5 -21.7°
Reaches altitude 10° 18:25:19 10° 356° (N) 2,675 6.8 -22.2°
Maximum altitude 18:31:25 69° 79° (E) 1,005 4.3 -23.2°
Drops below altitude 10° 18:37:26 10° 163° (SSE) 2,643 6.6 -24.3°
Sets 18:39:55 0° 166° (SSE) 3,581 7.3 -24.7°
